Time,TemperatureF,DewpointF,PressureIn,WindDirection,WindDirectionDegrees,WindSpeedMPH,WindSpeedGustMPH,Humidity,HourlyPrecipIn,Conditions,Clouds,dailyrainin,SoftwareType,DateUTC
2013-03-27 00:02:00,48.0,46.0,29.98,ESE,105,1.0,12.0,93,0.00,,,0.01,,2013-03-27 07:02:00,
2013-03-27 00:12:00,48.0,46.0,29.98,ESE,105,1.0,12.0,93,0.00,,,0.01,,2013-03-27 07:12:00,
2013-03-27 00:22:00,48.0,46.0,29.98,SSE,164,4.0,13.0,93,0.00,,,0.01,,2013-03-27 07:22:00,
2013-03-27 00:32:00,48.0,46.0,29.98,ESE,119,5.0,12.0,93,0.00,,,0.01,,2013-03-27 07:32:00,
2013-03-27 00:42:00,48.0,46.0,29.98,ESE,119,5.0,12.0,93,0.00,,,0.01,,2013-03-27 07:42:00,
2013-03-27 00:53:00,48.0,46.0,29.98,ESE,119,5.0,12.0,93,0.00,,,0.01,,2013-03-27 07:53:00,
2013-03-27 01:02:00,48.0,46.0,29.97,ENE,78,6.0,11.0,93,0.00,,,0.01,,2013-03-27 08:02:00,
2013-03-27 01:12:00,48.0,46.0,29.97,ENE,78,6.0,11.0,93,0.00,,,0.01,,2013-03-27 08:12:00,
2013-03-27 01:22:00,48.0,46.0,29.97,ENE,78,4.0,10.0,93,0.00,,,0.01,,2013-03-27 08:22:00,
2013-03-27 01:32:00,47.0,45.0,29.97,East,91,5.0,10.0,93,0.00,,,0.01,,2013-03-27 08:32:00,
2013-03-27 01:43:00,47.0,45.0,29.97,East,91,5.0,10.0,93,0.00,,,0.01,,2013-03-27 08:43:00,
2013-03-27 01:52:00,47.0,45.0,29.96,ENE,76,4.0,10.0,93,0.00,,,0.01,,2013-03-27 08:52:00,
2013-03-27 02:01:00,47.0,45.0,29.96,East,93,5.0,11.0,93,0.00,,,0.01,,2013-03-27 09:01:00,
2013-03-27 02:11:00,47.0,45.0,29.96,East,93,5.0,11.0,93,0.00,,,0.01,,2013-03-27 09:11:00,
2013-03-27 02:22:00,47.0,45.0,29.95,ENE,62,4.0,15.0,93,0.00,,,0.01,,2013-03-27 09:22:00,
2013-03-27 02:32:00,47.0,45.0,29.95,East,86,6.0,12.0,93,0.00,,,0.01,,2013-03-27 09:32:00,
2013-03-27 02:42:00,47.0,45.0,29.95,East,86,6.0,12.0,93,0.00,,,0.01,,2013-03-27 09:42:00,
2013-03-27 02:52:00,47.0,45.0,29.95,ESE,117,3.0,14.0,93,0.00,,,0.01,,2013-03-27 09:52:00,
2013-03-27 03:02:00,47.0,45.0,29.95,ENE,58,4.0,10.0,93,0.00,,,0.01,,2013-03-27 10:02:00,
2013-03-27 03:12:00,47.0,45.0,29.95,ENE,58,4.0,10.0,93,0.00,,,0.01,,2013-03-27 10:12:00,
2013-03-27 03:22:00,47.0,45.0,29.94,NE,39,4.0,11.0,94,0.00,,,0.01,,2013-03-27 10:22:00,
2013-03-27 03:32:00,47.0,45.0,29.94,East,101,2.0,7.0,93,0.00,,,0.01,,2013-03-27 10:32:00,
2013-03-27 03:42:00,47.0,45.0,29.94,East,101,2.0,7.0,93,0.00,,,0.01,,2013-03-27 10:42:00,
2013-03-27 03:52:00,47.0,45.0,29.94,East,100,5.0,10.0,93,0.00,,,0.01,,2013-03-27 10:52:00,
2013-03-27 04:02:00,47.0,45.0,29.94,ESE,113,4.0,9.0,93,0.00,,,0.01,,2013-03-27 11:02:00,
2013-03-27 04:12:00,47.0,45.0,29.94,ESE,113,4.0,9.0,93,0.00,,,0.01,,2013-03-27 11:12:00,
2013-03-27 04:22:00,47.0,45.0,29.94,ESE,103,5.0,10.0,94,0.00,,,0.01,,2013-03-27 11:22:00,
2013-03-27 04:32:00,47.0,45.0,29.93,ENE,67,4.0,12.0,93,0.00,,,0.01,,2013-03-27 11:32:00,
2013-03-27 04:42:00,47.0,45.0,29.93,ENE,67,4.0,12.0,93,0.00,,,0.01,,2013-03-27 11:42:00,
2013-03-27 04:52:00,47.0,45.0,29.94,NE,37,4.0,9.0,93,0.00,,,0.01,,2013-03-27 11:52:00,
2013-03-27 05:02:00,47.0,45.0,29.93,East,86,4.0,10.0,93,0.00,,,0.01,,2013-03-27 12:02:00,
2013-03-27 05:12:00,47.0,45.0,29.93,East,86,4.0,10.0,93,0.00,,,0.01,,2013-03-27 12:12:00,
2013-03-27 05:22:00,47.0,45.0,29.94,NE,38,4.0,9.0,93,0.00,,,0.01,,2013-03-27 12:22:00,
2013-03-27 05:32:00,47.0,45.0,29.93,East,98,6.0,10.0,93,0.00,,,0.01,,2013-03-27 12:32:00,
2013-03-27 05:42:00,47.0,45.0,29.93,East,98,6.0,10.0,93,0.00,,,0.01,,2013-03-27 12:42:00,
2013-03-27 05:51:00,47.0,45.0,29.93,NE,55,4.0,11.0,93,0.00,,,0.01,,2013-03-27 12:51:00,
2013-03-27 06:02:00,47.0,45.0,29.94,NE,49,6.0,14.0,93,0.00,,,0.01,,2013-03-27 13:02:00,
2013-03-27 06:12:00,47.0,45.0,29.94,NE,49,6.0,14.0,93,0.00,,,0.01,,2013-03-27 13:12:00,
2013-03-27 06:22:00,47.0,45.0,29.94,East,97,4.0,10.0,93,0.00,,,0.01,,2013-03-27 13:22:00,
2013-03-27 06:32:00,47.0,45.0,29.94,ENE,69,3.0,11.0,92,0.00,,,0.01,,2013-03-27 13:32:00,
2013-03-27 06:42:00,47.0,45.0,29.94,ENE,69,3.0,11.0,92,0.00,,,0.01,,2013-03-27 13:42:00,
2013-03-27 06:52:00,47.0,45.0,29.94,ENE,57,5.0,9.0,92,0.00,,,0.01,,2013-03-27 13:52:00,
2013-03-27 07:02:00,47.0,45.0,29.94,ENE,64,5.0,11.0,93,0.00,,,0.01,,2013-03-27 14:02:00,
2013-03-27 07:11:00,47.0,45.0,29.94,ENE,64,5.0,11.0,93,0.00,,,0.01,,2013-03-27 14:11:00,
2013-03-27 07:21:00,47.0,45.0,29.94,NE,53,6.0,11.0,93,0.00,,,0.01,,2013-03-27 14:21:00,
2013-03-27 07:32:00,47.0,45.0,29.93,NE,51,4.0,8.0,93,0.00,,,0.01,,2013-03-27 14:32:00,
2013-03-27 07:42:00,47.0,45.0,29.93,NE,51,4.0,8.0,93,0.00,,,0.01,,2013-03-27 14:42:00,
2013-03-27 07:52:00,47.0,45.0,29.94,NE,52,3.0,9.0,93,0.00,,,0.01,,2013-03-27 14:52:00,
2013-03-27 08:02:00,47.0,45.0,29.94,ENE,71,3.0,8.0,93,0.00,,,0.01,,2013-03-27 15:02:00,
2013-03-27 08:11:00,47.0,45.0,29.94,ENE,71,3.0,8.0,93,0.00,,,0.01,,2013-03-27 15:11:00,
2013-03-27 08:22:00,47.0,45.0,29.95,East,86,0.0,6.0,93,0.00,,,0.01,,2013-03-27 15:22:00,
2013-03-27 08:32:00,48.0,46.0,29.95,NE,46,3.0,5.0,93,0.00,,,0.00,,2013-03-27 15:32:00,
2013-03-27 08:42:00,48.0,46.0,29.95,NE,46,3.0,5.0,93,0.00,,,0.00,,2013-03-27 15:42:00,
2013-03-27 08:52:00,48.0,46.0,29.95,ENE,63,3.0,7.0,92,0.00,,,0.00,,2013-03-27 15:52:00,
2013-03-27 09:02:00,48.0,46.0,29.95,East,83,3.0,7.0,92,0.00,,,0.00,,2013-03-27 16:02:00,
2013-03-27 09:12:00,48.0,46.0,29.95,East,83,3.0,7.0,92,0.00,,,0.00,,2013-03-27 16:12:00,
2013-03-27 09:22:00,48.0,46.0,29.95,East,88,3.0,8.0,92,0.00,,,0.00,,2013-03-27 16:22:00,
2013-03-27 09:32:00,49.0,47.0,29.95,ESE,105,3.0,7.0,92,0.00,,,0.00,,2013-03-27 16:32:00,
2013-03-27 09:42:00,49.0,47.0,29.95,ESE,105,3.0,7.0,92,0.00,,,0.00,,2013-03-27 16:42:00,
2013-03-27 09:52:00,49.0,47.0,29.95,ESE,102,2.0,8.0,92,0.00,,,0.00,,2013-03-27 16:52:00,
2013-03-27 10:02:00,50.0,47.0,29.95,East,89,2.0,5.0,91,0.00,,,0.00,,2013-03-27 17:02:00,
2013-03-27 10:12:00,50.0,47.0,29.95,East,89,2.0,5.0,91,0.00,,,0.00,,2013-03-27 17:12:00,
2013-03-27 10:22:00,51.0,48.0,29.94,South,191,3.0,8.0,90,0.00,,,0.00,,2013-03-27 17:22:00,
2013-03-27 10:32:00,52.0,49.0,29.94,SSE,151,5.0,8.0,88,0.00,,,0.00,,2013-03-27 17:32:00,
2013-03-27 10:44:00,52.0,49.0,29.94,SSE,151,5.0,8.0,88,0.00,,,0.00,,2013-03-27 17:44:00,
2013-03-27 10:52:00,52.0,48.0,29.95,ESE,115,4.0,11.0,87,0.00,,,0.00,,2013-03-27 17:52:00,
2013-03-27 11:02:00,52.0,48.0,29.95,ENE,61,3.0,11.0,87,0.00,,,0.00,,2013-03-27 18:02:00,
2013-03-27 11:12:00,52.0,48.0,29.95,ENE,61,3.0,11.0,87,0.00,,,0.00,,2013-03-27 18:12:00,
2013-03-27 11:22:00,52.0,49.0,29.96,West,259,1.0,4.0,88,0.00,,,0.00,,2013-03-27 18:22:00,
2013-03-27 11:32:00,52.0,49.0,29.96,West,264,1.0,5.0,89,0.00,,,0.00,,2013-03-27 18:32:00,
2013-03-27 11:42:00,52.0,49.0,29.96,West,264,1.0,5.0,89,0.00,,,0.00,,2013-03-27 18:42:00,
2013-03-27 11:52:00,52.0,49.0,29.96,WSW,254,2.0,4.0,88,0.00,,,0.00,,2013-03-27 18:52:00,
2013-03-27 12:02:00,53.0,51.0,29.96,SW,216,1.0,5.0,92,0.00,,,0.00,,2013-03-27 19:02:00,
2013-03-27 12:12:00,53.0,51.0,29.96,SW,216,1.0,5.0,92,0.00,,,0.00,,2013-03-27 19:12:00,
2013-03-27 12:21:00,52.0,49.0,29.96,West,271,3.0,5.0,88,0.00,,,0.00,,2013-03-27 19:21:00,
2013-03-27 12:32:00,51.0,48.0,29.96,West,259,4.0,7.0,91,0.00,,,0.00,,2013-03-27 19:32:00,
2013-03-27 12:42:00,51.0,48.0,29.96,West,259,4.0,7.0,91,0.00,,,0.00,,2013-03-27 19:42:00,
2013-03-27 12:52:00,51.0,48.0,29.97,West,267,4.0,6.0,91,0.00,,,0.00,,2013-03-27 19:52:00,
2013-03-27 13:02:00,52.0,49.0,29.97,West,265,4.0,6.0,91,0.00,,,0.00,,2013-03-27 20:02:00,
2013-03-27 13:12:00,52.0,49.0,29.97,West,265,4.0,6.0,91,0.00,,,0.00,,2013-03-27 20:12:00,
2013-03-27 13:22:00,52.0,49.0,29.97,West,269,4.0,6.0,90,0.00,,,0.00,,2013-03-27 20:22:00,
2013-03-27 13:32:00,52.0,49.0,29.97,SSW,212,3.0,5.0,90,0.00,,,0.00,,2013-03-27 20:32:00,
2013-03-27 13:42:00,52.0,49.0,29.97,SSW,212,3.0,5.0,90,0.00,,,0.00,,2013-03-27 20:42:00,
2013-03-27 13:52:00,52.0,49.0,29.97,West,273,4.0,7.0,90,0.00,,,0.00,,2013-03-27 20:52:00,
2013-03-27 14:02:00,52.0,49.0,29.97,West,269,4.0,7.0,90,0.00,,,0.00,,2013-03-27 21:02:00,
2013-03-27 14:12:00,52.0,49.0,29.97,West,269,4.0,7.0,90,0.00,,,0.00,,2013-03-27 21:12:00,
2013-03-27 14:22:00,52.0,49.0,29.97,West,269,4.0,7.0,90,0.00,,,0.00,,2013-03-27 21:22:00,
2013-03-27 14:32:00,52.0,49.0,29.97,WSW,254,3.0,6.0,91,0.00,,,0.00,,2013-03-27 21:32:00,
2013-03-27 14:43:00,52.0,49.0,29.97,WSW,254,3.0,6.0,91,0.00,,,0.00,,2013-03-27 21:43:00,
2013-03-27 14:52:00,52.0,49.0,29.97,West,267,3.0,5.0,90,0.00,,,0.00,,2013-03-27 21:52:00,
2013-03-27 15:02:00,52.0,49.0,29.97,WSW,254,2.0,4.0,90,0.00,,,0.00,,2013-03-27 22:02:00,
2013-03-27 15:12:00,52.0,49.0,29.97,WSW,254,2.0,4.0,90,0.00,,,0.00,,2013-03-27 22:12:00,
2013-03-27 15:23:00,52.0,49.0,29.97,WSW,254,2.0,4.0,90,0.00,,,0.00,,2013-03-27 22:23:00,
2013-03-27 15:32:00,53.0,50.0,29.97,West,269,3.0,5.0,90,0.00,,,0.00,,2013-03-27 22:32:00,
2013-03-27 15:42:00,53.0,50.0,29.97,West,269,3.0,5.0,90,0.00,,,0.00,,2013-03-27 22:42:00,
2013-03-27 15:52:00,53.0,50.0,29.97,West,273,3.0,5.0,91,0.00,,,0.00,,2013-03-27 22:52:00,
2013-03-27 16:02:00,54.0,51.0,29.98,West,270,3.0,5.0,89,0.00,,,0.00,,2013-03-27 23:02:00,
2013-03-27 16:12:00,54.0,51.0,29.98,West,270,3.0,5.0,89,0.00,,,0.00,,2013-03-27 23:12:00,
2013-03-27 16:22:00,54.0,51.0,29.98,West,270,3.0,5.0,89,0.00,,,0.00,,2013-03-27 23:22:00,
2013-03-27 16:32:00,52.0,49.0,29.98,WSW,238,3.0,5.0,90,0.00,,,0.00,,2013-03-27 23:32:00,
2013-03-27 16:42:00,52.0,49.0,29.98,WSW,238,3.0,5.0,90,0.00,,,0.00,,2013-03-27 23:42:00,
2013-03-27 16:52:00,52.0,49.0,29.98,West,262,3.0,6.0,90,0.00,,,0.00,,2013-03-27 23:52:00,
2013-03-27 17:02:00,53.0,50.0,29.98,West,281,2.0,5.0,91,0.00,,,0.00,,2013-03-28 00:02:00,
2013-03-27 17:12:00,53.0,50.0,29.98,West,281,2.0,5.0,91,0.00,,,0.00,,2013-03-28 00:12:00,
2013-03-27 17:22:00,53.0,50.0,29.98,West,265,3.0,7.0,89,0.00,,,0.00,,2013-03-28 00:22:00,
2013-03-27 17:32:00,53.0,50.0,29.97,West,280,2.0,6.0,89,0.00,,,0.00,,2013-03-28 00:32:00,
2013-03-27 17:42:00,53.0,50.0,29.97,West,280,2.0,6.0,89,0.00,,,0.00,,2013-03-28 00:42:00,
2013-03-27 17:52:00,54.0,51.0,29.98,WNW,288,3.0,6.0,89,0.00,,,0.00,,2013-03-28 00:52:00,
2013-03-27 18:01:00,54.0,51.0,29.98,WSW,249,3.0,7.0,89,0.00,,,0.00,,2013-03-28 01:01:00,
2013-03-27 18:12:00,54.0,51.0,29.98,WSW,249,3.0,7.0,89,0.00,,,0.00,,2013-03-28 01:12:00,
2013-03-27 18:22:00,53.0,50.0,29.98,SSW,196,3.0,6.0,88,0.00,,,0.00,,2013-03-28 01:22:00,
2013-03-27 18:32:00,53.0,50.0,29.98,SSW,196,3.0,6.0,88,0.00,,,0.00,,2013-03-28 01:32:00,
2013-03-27 18:42:00,53.0,50.0,29.98,SSW,196,3.0,6.0,88,0.00,,,0.00,,2013-03-28 01:42:00,
2013-03-27 18:52:00,53.0,50.0,29.98,West,278,2.0,6.0,90,0.00,,,0.00,,2013-03-28 01:52:00,
2013-03-27 19:02:00,52.0,49.0,29.98,SE,146,2.0,7.0,91,0.00,,,0.00,,2013-03-28 02:02:00,
2013-03-27 19:12:00,52.0,49.0,29.98,SE,146,2.0,7.0,91,0.00,,,0.00,,2013-03-28 02:12:00,
2013-03-27 19:22:00,52.0,50.0,29.98,ENE,78,0.0,6.0,92,0.00,,,0.00,,2013-03-28 02:22:00,
2013-03-27 19:32:00,52.0,50.0,29.98,SE,125,4.0,8.0,92,0.01,,,0.01,,2013-03-28 02:32:00,
2013-03-27 19:42:00,52.0,50.0,29.98,SE,125,4.0,8.0,92,0.01,,,0.01,,2013-03-28 02:42:00,
2013-03-27 19:52:00,52.0,50.0,29.98,SE,125,4.0,8.0,92,0.01,,,0.01,,2013-03-28 02:52:00,
2013-03-27 20:02:00,52.0,50.0,29.98,SSW,203,2.0,6.0,93,0.01,,,0.01,,2013-03-28 03:02:00,
2013-03-27 20:12:00,52.0,50.0,29.98,SSW,203,2.0,6.0,93,0.01,,,0.01,,2013-03-28 03:12:00,
2013-03-27 20:22:00,52.0,50.0,29.99,SSE,161,1.0,6.0,93,0.01,,,0.01,,2013-03-28 03:22:00,
2013-03-27 20:33:00,52.0,50.0,29.99,SSE,148,0.0,6.0,92,0.00,,,0.01,,2013-03-28 03:33:00,
2013-03-27 20:42:00,52.0,50.0,29.99,SSE,148,0.0,6.0,92,0.00,,,0.01,,2013-03-28 03:42:00,
2013-03-27 20:52:00,52.0,50.0,29.99,ENE,74,1.0,5.0,92,0.00,,,0.01,,2013-03-28 03:52:00,
2013-03-27 21:02:00,52.0,50.0,29.99,SSW,212,0.0,4.0,92,0.00,,,0.01,,2013-03-28 04:02:00,
2013-03-27 21:12:00,52.0,50.0,29.99,SSW,212,0.0,4.0,92,0.00,,,0.01,,2013-03-28 04:12:00,
2013-03-27 21:22:00,52.0,50.0,29.99,SSW,212,0.0,0.0,92,0.00,,,0.01,,2013-03-28 04:22:00,
2013-03-27 21:32:00,52.0,50.0,30.00,NE,40,0.0,0.0,92,0.00,,,0.01,,2013-03-28 04:32:00,
2013-03-27 21:42:00,52.0,50.0,30.00,NE,40,0.0,0.0,92,0.00,,,0.01,,2013-03-28 04:42:00,
2013-03-27 21:52:00,51.0,49.0,30.00,ENE,72,0.0,0.0,93,0.00,,,0.01,,2013-03-28 04:52:00,
2013-03-27 22:02:00,51.0,49.0,30.01,ENE,78,1.0,5.0,93,0.00,,,0.01,,2013-03-28 05:02:00,
2013-03-27 22:12:00,51.0,49.0,30.01,ENE,78,1.0,5.0,93,0.00,,,0.01,,2013-03-28 05:12:00,
2013-03-27 22:22:00,52.0,50.0,30.01,SSE,157,0.0,4.0,93,0.00,,,0.01,,2013-03-28 05:22:00,
2013-03-27 22:32:00,52.0,50.0,30.01,SSE,157,0.0,4.0,93,0.00,,,0.01,,2013-03-28 05:32:00,
2013-03-27 22:42:00,52.0,50.0,30.01,SSE,157,0.0,4.0,93,0.00,,,0.01,,2013-03-28 05:42:00,
2013-03-27 22:52:00,52.0,50.0,30.01,NE,51,2.0,7.0,93,0.00,,,0.01,,2013-03-28 05:52:00,
2013-03-27 23:02:00,52.0,50.0,30.01,NE,52,3.0,7.0,92,0.00,,,0.01,,2013-03-28 06:02:00,
2013-03-27 23:12:00,52.0,50.0,30.01,NE,52,3.0,7.0,92,0.00,,,0.01,,2013-03-28 06:12:00,
2013-03-27 23:22:00,51.0,49.0,30.01,ENE,69,3.0,9.0,93,0.00,,,0.01,,2013-03-28 06:22:00,
2013-03-27 23:32:00,50.0,48.0,30.01,SE,126,1.0,3.0,92,0.00,,,0.01,,2013-03-28 06:32:00,
2013-03-27 23:42:00,50.0,48.0,30.01,SE,126,1.0,3.0,92,0.00,,,0.01,,2013-03-28 06:42:00,
2013-03-27 23:52:00,50.0,48.0,30.02,South,177,0.0,4.0,93,0.00,,,0.01,,2013-03-28 06:52:00,